PROFILE

 METAR AND TAF INFORMATION
ADDS - METARS form results

(0843 UTC 19 August 2019)
http://aviationweather.gov/metar/data/
 
DTTJ 190830Z /////KT CAVOK Q1013 NOSIG
DTTJ 190800Z 12009KT CAVOK 32/13 Q1013 NOSIG
TAF DTTJ 190500Z 1906/2006 11015KT CAVOK 

 AIRPORT MAP

 RUNWAY INFORMATION
Runway 09 Runway length 10171 ft Runway width 148 ft
Runway elevation 9 ft Runway displaced threshold 0 ft Runway heading 88
Runway 27 Runway length 10171 ft Runway width 148 ft
Runway elevation 18 ft Runway displaced threshold 0 ft Runway heading 268

 AIRPORT FREQUENCIES
Type APP Name DJERBA APP Frequency 120.3 MHZ
Type TWR Name DJERBA TWR Frequency 118.15 MHZ

 AIRPORT NEAR NAVIGATION AIDS
Type VOR-DME Name Djerba Frequency 112200 KHZ